Temperature
-3 -3 -3 -3 -3 -4 -4 -3 -3 -3 -3 -4 -4 -5 -5 -5 -5 -5 -5 -5 -5 -5 -5 -5 -4 -4 -4 -4 -3 -3 -3 -3 -3 -3 -3 -3 -3 -3 -3 -3 -3 -3 -3 -3
-3 -3 -4 -4 -4 -4 -5 -5 -5 -4 -4 -5 -6 -6 -6 -6 -6 -6 -6 -6 -6 -6 -5 -5 -5 -5 -5 -4 -4 -4 -4 -4 -4 -4 -4 -4 -4 -4 -4 -4 -4 -4 -4 -4
-3 -4 -4 -4 -5 -5 -6 -7 -6 -5 -5 -7 -7 -7 -7 -7 -7 -7 -7 -7 -7 -6 -6 -6 -6 -6 -5 -5 -5 -5 -5 -5 -5 -5 -5 -5 -5 -5 -5 -5 -5 -5 -5 -4
-4 -4 -4 -4 -6 -6 -6 -7 -8 -7 -7 -8 -8 -7 -7 -7 -7 -7 -7 -7 -7 -7 -7 -6 -6 -6 -6 -5 -5 -6 -5 -5 -5 -6 -6 -6 -6 -6 -6 -6 -6 -6 -5 -5
-5 -5 -5 -5 -6 -7 -7 -7 -8 -8 -8 -9 -8 -8 -7 -7 -7 -7 -7 -7 -7 -7 -7 -7 -7 -7 -6 -6 -6 -6 -6 -6 -6 -6 -6 -6 -6 -6 -6 -7 -6 -6 -6 -6
-6 -5 -5 -5 -7 -7 -7 -6 -8 -9 -9 -9 -9 -8 -8 -7 -8 -8 -8 -8 -8 -8 -8 -8 -7 -8 -7 -7 -7 -7 -7 -7 -7 -7 -7 -7 -7 -7 -7 -7 -7 -7 -7 -7
-7 -6 -6 -7 -8 -7 -6 -6 -8 -8 -9 -9 -10 -9 -9 -9 -9 -9 -9 -9 -9 -8 -8 -8 -8 -8 -8 -8 -8 -8 -8 -8 -8 -8 -8 -8 -8 -8 -8 -8 -8 -8 -7 -7
-7 -7 -6 -8 -9 -8 -8 -8 -8 -9 -9 -9 -9 -9 -9 -9 -9 -9 -9 -9 -9 -9 -9 -9 -9 -9 -9 -9 -9 -9 -9 -9 -8 -8 -9 -9 -9 -9 -9 -9 -9 -9 -8 -8
-8 -7 -8 -9 -8 -8 -8 -9 -9 -9 -9 -10 -10 -10 -10 -10 -10 -10 -10 -10 -10 -10 -10 -10 -10 -10 -10 -9 -9 -9 -9 -9 -9 -9 -9 -9 -9 -9 -9 -9 -10 -9 -9 -9
-10 -9 -9 -9 -8 -9 -9 -9 -9 -10 -10 -10 -10 -10 -10 -10 -10 -10 -10 -10 -10 -10 -10 -10 -10 -10 -10 -10 -10 -10 -10 -10 -9 -9 -10 -10 -10 -10 -10 -10 -10 -10 -10 -10
-10 -10 -10 -9 -9 -9 -10 -10 -10 -10 -10 -10 -11 -11 -11 -11 -11 -11 -11 -11 -11 -11 -11 -11 -11 -11 -11 -11 -10 -10 -10 -10 -10 -10 -10 -10 -10 -10 -10 -10 -10 -10 -10 -10
-10 -10 -11 -10 -9 -10 -10 -11 -11 -11 -11 -11 -11 -11 -11 -12 -12 -12 -12 -12 -12 -12 -12 -11 -11 -11 -11 -11 -11 -11 -11 -11 -11 -11 -11 -11 -10 -10 -10 -11 -11 -11 -11 -11
-10 -10 -10 -10 -10 -11 -11 -11 -11 -12 -12 -12 -12 -12 -12 -12 -12 -13 -13 -13 -12 -12 -12 -12 -12 -12 -12 -12 -11 -11 -11 -11 -11 -11 -11 -11 -11 -11 -11 -11 -11 -11 -11 -11
-11 -11 -11 -11 -11 -12 -12 -12 -12 -12 -12 -13 -13 -13 -13 -13 -13 -13 -13 -13 -13 -13 -13 -13 -12 -12 -12 -12 -12 -12 -12 -12 -12 -12 -12 -12 -12 -12 -12 -11 -11 -11 -11 -11
-11 -12 -12 -12 -12 -12 -12 -13 -13 -13 -13 -13 -14 -14 -14 -14 -14 -14 -14 -14 -13 -13 -13 -13 -13 -13 -13 -13 -12 -12 -12 -12 -12 -12 -12 -12 -12 -12 -12 -12 -12 -12 -11 -11
-12 -12 -12 -13 -13 -13 -13 -13 -14 -14 -14 -14 -15 -15 -15 -15 -15 -14 -14 -14 -14 -14 -14 -14 -14 -14 -13 -13 -13 -13 -13 -13 -13 -13 -13 -12 -12 -12 -12 -12 -12 -12 -12 -12
-13 -13 -13 -14 -14 -14 -14 -14 -14 -14 -15 -15 -15 -15 -15 -15 -15 -15 -15 -15 -15 -15 -15 -14 -14 -14 -14 -14 -14 -14 -13 -13 -13 -13 -13 -13 -13 -13 -13 -13 -13 -13 -12 -12
-13 -13 -14 -14 -14 -14 -14 -14 -15 -15 -15 -15 -15 -15 -15 -15 -16 -16 -15 -15 -15 -15 -15 -15 -15 -15 -14 -14 -14 -14 -14 -14 -14 -14 -13 -13 -13 -13 -13 -13 -13 -13 -13 -13
-13 -14 -14 -14 -14 -14 -14 -15 -15 -15 -15 -15 -16 -16 -16 -16 -16 -16 -16 -16 -16 -15 -15 -15 -15 -15 -15 -15 -15 -15 -14 -14 -14 -14 -14 -14 -14 -14 -14 -13 -13 -13 -13 -13
-14 -14 -14 -14 -14 -14 -15 -15 -15 -15 -15 -16 -16 -16 -16 -16 -16 -16 -16 -16 -16 -16 -16 -16 -16 -15 -15 -15 -15 -15 -15 -15 -15 -15 -15 -15 -14 -14 -14 -14 -14 -14 -14 -14
-14 -14 -14 -14 -15 -15 -15 -15 -15 -15 -16 -16 -16 -16 -16 -16 -16 -16 -16 -16 -16 -16 -16 -16 -16 -16 -16 -16 -16 -16 -15 -15 -15 -15 -15 -15 -15 -15 -15 -14 -14 -14 -14 -14
-14 -15 -15 -15 -15 -15 -15 -15 -16 -16 -16 -16 -16 -16 -16 -16 -17 -17 -17 -17 -17 -16 -16 -16 -16 -16 -16 -16 -16 -16 -16 -16 -16 -16 -16 -15 -15 -15 -15 -15 -15 -15 -14 -14
-15 -15 -15 -15 -15 -15 -15 -16 -16 -16 -16 -16 -16 -17 -17 -17 -17 -17 -17 -17 -17 -17 -17 -17 -17 -17 -17 -17 -17 -16 -16 -16 -16 -16 -16 -16 -16 -16 -15 -15 -15 -15 -15 -15
-15 -15 -15 -16 -16 -16 -16 -16 -16 -16 -16 -16 -17 -17 -17 -17 -17 -17 -17 -17 -17 -17 -17 -17 -17 -17 -17 -17 -17 -17 -17 -16 -16 -16 -16 -16 -16 -16 -16 -15 -15 -15 -15 -15
-15 -15 -16 -16 -16 -16 -16 -16 -16 -16 -16 -17 -17 -17 -17 -17 -17 -17 -18 -17 -17 -17 -17 -17 -17 -17 -17 -17 -17 -17 -17 -17 -16 -16 -16 -16 -16 -16 -16 -15 -15 -15 -15 -15
-15 -16 -16 -16 -16 -16 -17 -17 -17 -17 -17 -17 -17 -17 -17 -17 -17 -17 -18 -18 -18 -18 -17 -17 -17 -17 -17 -17 -17 -17 -17 -17 -17 -16 -16 -16 -16 -16 -16 -16 -15 -15 -15 -15
-16 -16 -16 -16 -16 -17 -17 -17 -17 -17 -17 -17 -17 -17 -17 -17 -17 -17 -18 -18 -18 -18 -18 -18 -18 -17 -17 -17 -17 -17 -17 -17 -17 -17 -17 -16 -16 -16 -16 -16 -15 -15 -15 -15
Wind_Speed
4 2 2 3 4 4 7 7 8 8 8 10 8 7 7 6 6 7 7 7 7 6 6 7 7 6 6 6 5 4 3 4 5 5 4 5 5 5 6 6 7 7 6 7
3 2 2 5 6 5 6 6 9 10 11 7 6 5 6 6 7 8 8 7 7 7 7 7 7 7 7 7 5 4 4 5 5 4 4 4 5 5 5 6 6 6 6 7
3 2 3 6 5 5 4 4 5 8 8 7 7 7 7 7 7 8 8 7 7 7 7 7 7 7 7 7 6 5 5 5 5 4 5 5 5 4 5 5 5 6 7 7
1 2 5 5 1 2 5 5 4 5 6 7 8 8 8 6 6 7 8 8 7 7 7 7 7 7 6 6 5 5 5 5 5 5 5 5 4 5 5 5 5 6 7 7
1 2 6 5 1 1 3 6 3 5 8 9 9 6 5 4 4 6 7 7 7 7 7 7 7 6 5 6 5 5 6 6 5 5 5 5 5 6 5 5 5 6 6 7
2 2 6 5 3 2 1 5 2 3 7 8 6 5 7 6 7 8 7 6 6 6 6 7 7 6 5 6 6 6 7 6 6 5 6 6 6 6 5 5 6 6 7 6
3 5 7 4 2 2 2 6 6 5 6 5 5 6 8 8 8 7 7 7 7 6 6 6 7 6 6 7 7 8 7 6 6 6 6 6 6 5 5 5 5 5 6 6
2 4 7 1 2 3 5 5 5 6 5 5 7 8 8 8 8 8 8 8 7 7 7 7 6 6 7 8 9 8 7 6 6 6 5 5 5 5 5 5 5 5 5 5
6 6 3 1 3 3 3 5 6 6 6 6 6 8 9 8 7 8 8 8 7 7 8 7 6 6 7 9 8 7 7 7 6 6 5 5 5 5 5 4 4 5 5 5
5 6 5 4 4 4 4 6 7 6 6 6 7 8 8 8 8 8 8 8 8 8 8 8 8 7 7 8 7 6 7 7 5 5 5 5 4 5 5 4 5 5 5 5
5 6 6 4 4 6 6 6 6 7 6 6 6 7 8 8 8 7 8 8 8 8 9 10 9 9 9 8 7 6 7 6 5 5 5 5 5 5 6 5 6 6 6 5
5 4 4 8 6 5 6 7 7 7 8 7 6 7 7 7 7 7 7 8 8 8 9 10 9 10 9 8 6 6 6 6 5 4 4 4 4 5 7 7 9 10 10 8
5 5 5 7 6 5 5 6 7 7 6 7 6 6 7 7 7 7 7 8 9 9 9 9 10 10 10 8 7 6 6 6 5 5 4 5 4 5 5 6 8 9 10 10
4 3 5 5 6 7 6 6 6 6 5 5 5 6 6 7 7 7 8 8 9 9 9 9 9 10 10 8 7 7 6 7 6 4 4 5 5 5 4 4 5 5 7 10
4 4 6 6 6 6 5 5 6 7 6 6 6 6 6 7 8 8 8 8 8 8 9 9 9 10 9 8 7 7 6 5 5 5 4 4 4 4 4 4 4 4 4 5
6 5 4 5 6 7 6 6 6 7 7 7 7 7 8 7 8 8 8 7 7 9 9 9 10 10 9 8 7 6 5 8 7 5 4 4 4 4 4 4 4 4 4 4
4 5 6 7 8 7 7 6 6 6 6 7 7 8 8 8 8 7 8 8 7 8 9 9 10 10 9 8 7 5 5 6 8 6 4 4 4 4 3 3 4 4 4 5
5 6 6 6 7 7 7 6 5 6 6 7 7 7 7 7 8 9 9 9 8 9 9 9 9 10 8 8 7 5 5 4 4 4 4 4 4 3 3 3 3 4 4 5
5 5 6 6 5 5 5 5 5 6 6 5 6 7 7 7 7 8 8 8 9 10 10 10 13 11 9 9 9 5 5 5 5 5 4 6 6 4 3 3 3 4 4 4
6 5 5 5 5 4 4 4 5 5 5 5 6 6 7 8 7 8 8 7 7 7 9 11 10 9 9 9 10 5 5 5 5 5 4 4 4 4 4 4 3 4 4 3
6 6 6 5 5 5 5 4 4 5 6 5 5 6 7 8 7 7 7 8 8 8 9 12 8 7 8 8 9 5 4 4 4 4 4 4 4 4 4 4 4 4 4 4
5 5 5 5 5 6 5 4 4 5 5 6 6 6 7 8 8 7 6 6 8 12 9 7 6 10 11 10 5 5 5 5 4 4 4 4 4 4 5 4 4 4 4 4
5 5 5 5 5 5 6 5 4 4 5 6 6 6 7 6 6 6 7 6 6 11 9 7 11 15 14 8 5 5 5 5 5 4 4 4 4 4 5 5 4 4 4 4
4 5 5 4 4 4 5 6 5 5 5 5 5 5 5 6 6 5 5 10 13 13 8 11 16 15 13 6 5 5 5 5 5 5 5 4 4 4 4 4 4 4 4 4
4 4 4 4 4 4 5 6 6 5 5 5 6 6 4 4 5 6 6 8 12 12 8 11 15 14 9 6 6 6 5 5 5 5 5 5 5 4 4 5 4 4 4 4
4 4 4 4 4 4 4 4 4 5 5 6 6 5 5 5 5 6 6 7 8 11 9 7 8 9 7 6 6 6 6 6 7 6 6 5 5 5 5 5 6 5 5 5
4 3 3 4 4 4 4 4 5 5 5 5 6 6 6 6 6 6 6 6 7 7 7 6 6 6 6 6 6 6 6 6 6 6 6 5 5 5 5 6 5 5 5 5
Wind_Direction
254 255 201 242 263 227 217 222 230 249 252 276 289 292 300 310 316 321 319 321 321 322 322 323 324 323 318 309 307 297 279 269 263 262 257 251 248 245 242 238 236 233 230 231
283 248 246 276 276 247 245 253 256 270 275 285 298 309 308 305 306 308 306 309 312 315 317 315 314 315 314 308 306 298 277 272 276 275 267 259 254 250 245 241 239 235 231 230
265 293 337 282 253 221 237 235 224 250 272 313 314 308 300 298 298 296 299 304 306 306 303 305 305 306 304 301 302 294 283 280 276 270 267 265 263 260 251 245 240 238 235 231
277 25 253 246 148 202 238 258 237 269 297 304 297 298 293 291 290 297 303 304 303 303 303 306 303 302 299 297 296 290 284 279 274 268 267 269 264 260 257 250 243 243 241 235
166 245 273 288 281 192 240 274 247 268 295 310 318 311 300 312 311 300 300 300 299 300 301 305 307 305 306 303 299 290 282 277 273 267 267 266 263 260 260 254 250 247 244 238
160 221 249 261 295 305 160 277 303 298 297 310 336 318 300 322 324 316 313 310 308 309 308 310 311 312 307 303 302 293 286 282 277 268 262 260 260 262 263 255 255 250 250 244
207 234 261 267 314 74 168 276 315 300 292 294 279 272 292 311 317 316 315 317 318 317 313 310 313 316 308 305 298 293 292 287 279 269 263 260 261 260 258 256 257 250 251 252
190 227 258 293 107 180 245 303 311 305 296 291 291 299 307 312 316 322 323 324 325 321 315 314 315 314 308 303 301 300 296 290 282 273 269 267 261 264 259 251 254 253 250 255
206 227 265 191 219 251 285 296 300 300 300 298 299 301 309 313 317 321 324 324 323 318 315 317 316 309 302 302 305 305 301 294 286 281 275 271 263 262 261 251 250 255 250 251
259 268 278 271 270 296 304 295 299 299 300 303 301 303 310 313 317 321 322 322 321 320 318 317 318 314 303 303 306 305 302 300 295 285 281 275 268 260 254 251 250 252 251 251
259 283 313 292 290 301 309 312 315 316 311 305 304 307 310 312 313 316 319 319 318 316 313 312 315 315 312 309 307 303 302 301 298 288 278 276 271 260 255 247 245 250 252 249
249 266 265 285 296 300 303 306 305 310 315 316 309 305 311 311 310 313 316 318 319 318 316 315 316 315 314 312 307 302 303 304 298 292 285 280 278 284 277 270 267 264 263 260
258 285 278 285 301 314 308 309 312 309 304 309 315 313 313 312 313 317 319 320 319 317 316 316 316 316 316 315 310 300 293 294 293 292 288 284 279 278 286 289 277 272 270 267
279 302 293 293 303 315 318 319 322 320 315 314 316 319 319 317 317 320 318 316 315 316 316 315 317 316 317 316 312 304 299 296 295 286 284 282 280 280 278 279 288 288 280 271
301 291 280 295 308 317 322 327 329 326 327 328 328 324 322 319 316 314 313 315 319 318 319 322 321 319 322 320 315 309 303 299 295 290 285 282 282 280 278 273 276 287 300 289
312 311 302 305 307 313 320 323 320 318 323 324 324 322 318 314 311 312 317 324 325 323 322 322 319 319 324 324 323 315 305 307 312 305 299 295 287 278 273 272 274 277 280 290
315 313 313 312 307 306 306 307 307 310 314 316 316 318 319 319 319 322 325 323 318 314 315 315 316 321 324 325 322 316 311 313 319 319 312 302 293 279 272 274 276 280 280 277
277 281 283 286 291 299 307 312 311 312 311 311 317 323 324 323 321 320 321 323 324 323 320 319 320 321 323 325 324 319 316 313 315 311 312 313 310 303 293 284 284 288 296 297
313 310 310 306 302 301 302 305 310 313 314 317 319 318 316 316 316 316 320 324 326 325 326 326 328 331 327 326 328 322 322 321 322 321 318 319 323 319 307 299 296 295 296 301
330 329 327 325 324 319 312 314 317 317 317 319 320 320 321 320 321 320 323 320 314 310 314 323 327 326 324 323 327 326 324 318 315 317 320 318 317 317 310 302 300 302 303 300
327 329 330 330 327 325 321 319 318 316 317 320 319 316 315 318 323 324 324 322 320 320 321 326 331 326 324 326 327 330 324 318 315 314 317 316 314 315 312 307 306 306 304 304
321 321 322 324 326 325 325 322 316 315 319 323 323 323 323 324 326 325 316 308 315 325 331 328 327 328 333 334 336 334 326 319 315 314 313 311 309 310 312 308 306 305 303 301
314 315 317 319 320 320 323 325 322 321 321 321 322 323 322 319 321 322 320 321 321 326 332 329 331 334 337 341 339 334 331 328 323 316 310 307 305 304 306 307 306 305 305 304
318 320 321 325 331 331 328 327 327 324 317 313 315 317 318 319 319 313 305 320 330 331 333 331 336 338 341 348 342 336 331 328 323 318 312 308 305 304 305 306 306 305 303 301
320 320 325 330 328 320 317 323 328 327 326 325 324 323 319 313 311 317 319 321 327 333 333 333 337 340 344 339 336 331 327 323 320 318 315 311 308 307 305 305 304 305 304 300
316 314 310 305 304 309 316 321 322 324 326 326 325 326 326 323 317 317 320 323 325 330 332 329 331 333 335 334 332 330 328 325 327 330 324 316 313 311 309 309 309 305 301 300
321 323 323 323 323 321 318 316 315 316 318 316 316 321 325 326 325 325 324 325 326 327 326 327 328 329 331 331 330 328 326 323 322 322 320 317 314 312 311 309 307 305 303 305
Height
1479 1478 1479 1480 1481 1483 1483 1480 1478 1471 1471 1467 1465 1464 1462 1460 1459 1458 1456 1454 1452 1451 1449 1448 1446 1445 1443 1442 1441 1440 1440 1439 1438 1438 1438 1438 1438 1439 1439 1440 1440 1441 1442 1443
1480 1478 1479 1480 1479 1479 1480 1480 1477 1472 1469 1465 1464 1462 1460 1459 1457 1455 1453 1451 1450 1448 1446 1444 1443 1441 1440 1438 1437 1436 1435 1434 1433 1433 1433 1432 1432 1432 1433 1433 1434 1434 1435 1436
1480 1479 1477 1478 1476 1477 1478 1476 1476 1472 1467 1465 1463 1460 1458 1456 1455 1453 1451 1449 1447 1445 1443 1441 1439 1437 1435 1434 1433 1431 1430 1429 1428 1427 1427 1426 1426 1426 1426 1426 1427 1427 1428 1429
1482 1482 1482 1474 1472 1472 1473 1471 1471 1468 1465 1464 1462 1458 1456 1454 1452 1450 1448 1446 1444 1442 1440 1438 1436 1433 1431 1430 1428 1426 1425 1424 1423 1422 1421 1421 1420 1420 1420 1420 1420 1420 1420 1421
1484 1484 1479 1472 1471 1472 1472 1468 1466 1466 1464 1462 1459 1455 1452 1451 1450 1449 1446 1444 1441 1439 1437 1434 1431 1429 1426 1424 1423 1421 1420 1418 1417 1416 1416 1415 1414 1414 1414 1414 1413 1413 1414 1415
1485 1483 1478 1470 1470 1467 1470 1467 1462 1462 1460 1459 1458 1456 1450 1448 1447 1445 1443 1440 1438 1435 1433 1430 1427 1425 1422 1420 1418 1416 1414 1413 1412 1411 1410 1409 1408 1408 1408 1408 1407 1407 1407 1408
1486 1485 1476 1470 1468 1468 1472 1465 1461 1459 1458 1457 1456 1455 1450 1446 1444 1442 1439 1437 1434 1431 1429 1426 1424 1421 1418 1416 1414 1412 1410 1408 1407 1406 1405 1404 1403 1403 1402 1402 1402 1401 1401 1402
1486 1484 1475 1468 1468 1469 1467 1462 1460 1458 1456 1455 1452 1449 1446 1443 1441 1438 1436 1433 1430 1427 1425 1423 1420 1418 1414 1412 1410 1407 1405 1403 1401 1400 1399 1398 1398 1397 1397 1396 1396 1395 1395 1395
1477 1472 1467 1466 1465 1464 1463 1461 1458 1456 1453 1451 1448 1445 1443 1440 1437 1435 1432 1430 1427 1424 1421 1419 1417 1414 1411 1408 1406 1403 1401 1398 1396 1395 1394 1393 1393 1392 1391 1391 1390 1390 1389 1389
1474 1467 1465 1464 1462 1461 1460 1458 1456 1453 1451 1448 1445 1442 1440 1437 1434 1432 1429 1427 1424 1421 1418 1415 1413 1410 1407 1404 1402 1399 1396 1394 1392 1390 1389 1388 1388 1387 1386 1386 1385 1385 1384 1384
1472 1466 1463 1461 1460 1459 1457 1455 1452 1450 1448 1446 1442 1439 1437 1434 1431 1428 1426 1423 1421 1418 1414 1411 1409 1406 1403 1401 1398 1395 1393 1390 1388 1386 1385 1384 1383 1382 1381 1381 1381 1381 1380 1380
1468 1464 1464 1460 1457 1456 1453 1450 1448 1446 1443 1442 1440 1436 1434 1431 1428 1426 1423 1420 1417 1414 1411 1408 1405 1402 1399 1397 1394 1391 1388 1386 1384 1383 1381 1380 1378 1377 1377 1377 1376 1376 1376 1375
1464 1461 1460 1457 1455 1452 1450 1447 1445 1443 1440 1438 1436 1434 1431 1428 1425 1423 1420 1417 1414 1411 1408 1405 1402 1399 1396 1393 1390 1388 1385 1383 1381 1379 1377 1376 1374 1373 1372 1371 1371 1371 1371 1370
1460 1459 1456 1453 1451 1449 1447 1444 1442 1439 1437 1435 1433 1430 1428 1425 1422 1419 1417 1414 1411 1408 1405 1402 1398 1395 1392 1389 1387 1384 1382 1380 1377 1375 1374 1372 1371 1369 1368 1367 1365 1365 1365 1365
1457 1456 1454 1450 1448 1446 1443 1441 1438 1435 1433 1431 1429 1426 1424 1421 1419 1416 1414 1411 1408 1405 1401 1398 1395 1392 1389 1385 1383 1380 1378 1376 1374 1372 1370 1369 1367 1366 1365 1363 1362 1361 1360 1360
1453 1452 1450 1447 1445 1442 1440 1437 1435 1432 1430 1427 1425 1423 1421 1419 1416 1413 1411 1408 1405 1401 1398 1395 1392 1389 1385 1382 1379 1376 1375 1373 1371 1369 1367 1366 1364 1362 1361 1360 1359 1357 1356 1356
1451 1448 1446 1443 1442 1439 1437 1435 1433 1431 1428 1425 1423 1421 1418 1416 1413 1410 1408 1405 1402 1399 1396 1393 1389 1386 1383 1380 1377 1374 1372 1370 1368 1366 1365 1363 1361 1359 1358 1357 1356 1354 1353 1353
1450 1447 1445 1442 1439 1437 1435 1433 1431 1429 1426 1424 1421 1419 1416 1413 1411 1408 1405 1402 1399 1396 1393 1390 1387 1384 1380 1377 1374 1372 1369 1367 1365 1364 1362 1360 1358 1357 1355 1354 1353 1351 1350 1349
1446 1444 1442 1440 1438 1435 1433 1431 1429 1427 1425 1422 1420 1417 1414 1412 1409 1406 1403 1399 1396 1392 1390 1387 1385 1381 1378 1375 1373 1370 1367 1365 1363 1361 1359 1357 1356 1354 1353 1351 1350 1349 1347 1346
1444 1442 1440 1437 1436 1433 1431 1429 1427 1425 1423 1420 1418 1415 1412 1409 1406 1403 1400 1397 1395 1392 1388 1385 1382 1379 1376 1373 1370 1367 1365 1362 1360 1358 1357 1355 1353 1352 1350 1349 1347 1346 1344 1343
1442 1440 1438 1436 1434 1432 1430 1428 1426 1423 1421 1419 1416 1413 1410 1408 1405 1401 1398 1395 1393 1390 1387 1384 1380 1377 1374 1371 1368 1365 1363 1360 1358 1356 1355 1353 1351 1350 1348 1346 1345 1343 1342 1340
1440 1438 1436 1434 1432 1430 1428 1426 1424 1422 1419 1417 1414 1412 1409 1406 1403 1400 1397 1394 1391 1388 1385 1382 1379 1376 1373 1369 1366 1363 1361 1359 1357 1355 1353 1351 1349 1348 1346 1344 1343 1341 1339 1338
1439 1437 1435 1432 1430 1428 1426 1424 1422 1420 1418 1415 1413 1410 1407 1405 1402 1398 1395 1393 1390 1387 1383 1380 1377 1374 1371 1367 1364 1361 1359 1357 1355 1353 1351 1349 1348 1346 1344 1342 1341 1339 1337 1335
1437 1435 1433 1431 1429 1426 1424 1422 1421 1419 1416 1414 1411 1409 1406 1403 1400 1397 1394 1391 1388 1385 1382 1379 1376 1372 1369 1365 1362 1360 1357 1355 1353 1351 1349 1348 1346 1344 1342 1341 1339 1337 1335 1333
1436 1434 1431 1429 1427 1425 1423 1421 1419 1416 1414 1412 1410 1407 1404 1402 1399 1396 1393 1389 1387 1383 1380 1377 1374 1371 1367 1364 1361 1359 1356 1354 1352 1349 1347 1346 1344 1342 1341 1339 1337 1335 1333 1331
1434 1432 1430 1428 1426 1424 1422 1420 1417 1415 1413 1410 1408 1405 1403 1400 1397 1394 1391 1388 1385 1382 1378 1375 1372 1369 1366 1363 1360 1358 1355 1353 1350 1348 1346 1344 1342 1340 1339 1337 1335 1333 1331 1330
1432 1430 1428 1426 1425 1423 1421 1418 1416 1414 1411 1409 1406 1404 1401 1398 1396 1392 1389 1386 1383 1380 1377 1374 1371 1368 1365 1363 1360 1357 1354 1352 1349 1347 1344 1342 1340 1338 1337 1335 1333 1332 1330 1328